This demonstration page uses our WeatherBlox Daily Observations layout. Learn more.

Left ArrowRight Arrow

30.00354, -91.81873

Hourly Observations for October 6, 2022

Temp ( °F °C ) Dew Point ( °F °C ) Humidity (%) Winds ( mph kmh ) Pressure ( in mb ) Visibility ( mi km ) Precip ( " mm )
12:53 am 00:53 Mostly Clear 65 18.3 61 16.1 87 87 Calm 30.09 1019 10 16 0.00 0.00
1:53 am 01:53 Partly Cloudy 64 17.8 61 16.1 90 90 Calm 30.09 1019 10 16 0.00 0.00
2:53 am 02:53 Mostly Clear 63 17.2 60 15.6 90 90 S 3 6 30.09 1019 10 16 0.00 0.00
3:53 am 03:53 Clear 63 17.2 61 16.1 93 93 Calm 30.09 1019 10 16 0.00 0.00
4:25 am 04:25 Clear with Mist and Fog 63 17.2 60 15.6 90 90 Calm 30.09 1019 2 3 0.00 0.00
4:33 am 04:33 Clear with Mist and Fog 62 16.7 60 15.6 93 93 Calm 30.09 1019 3 5 0.00 0.00
4:53 am 04:53 Clear with Mist and Fog 61 16.1 60 15.6 97 97 Calm 30.09 1019 6 10 0.00 0.00
5:04 am 05:04 Clear with Mist and Fog 62 16.7 60 15.6 93 93 Calm 30.09 1019 2 3 0.00 0.00
5:12 am 05:12 Clear with Fog 61 16.1 59 15 93 93 Calm 30.09 1019 0 0 0.00 0.00
5:34 am 05:34 Clear with Mist and Fog 60 15.6 59 15 96 96 Calm 30.10 1019 4 6 0.00 0.00
5:53 am 05:53 Clear 62 16.7 59 15 90 90 Calm 30.10 1019 10 16 0.00 0.00
6:09 am 06:09 Mostly Clear with Mist and Fog 60 15.6 58 14.4 93 93 Calm 30.10 1019 1 1 0.00 0.00
6:18 am 06:18 Mostly Clear with Fog 62 16.7 59 15 90 90 Calm 30.10 1019 0 0 0.00 0.00
6:21 am 06:21 Clear with Fog 60 15.6 59 15 96 96 Calm 30.10 1019 1 1 0.00 0.00
6:31 am 06:31 Clear with Mist and Fog 61 16.1 59 15 93 93 Calm 30.10 1019 2 3 0.00 0.00
6:42 am 06:42 Clear with Mist and Fog 61 16.1 59 15 93 93 Calm 30.11 1020 1 1 0.00 0.00
6:53 am 06:53 Clear with Fog 61 16.1 59 15 93 93 Calm 30.11 1020 0 0 0.00 0.00
7:32 am 07:32 Sunny with Mist and Fog 61 16.1 60 15.6 97 97 Calm 30.12 1020 1 2 0.00 0.00
7:46 am 07:46 Sunny with Mist and Fog 62 16.7 61 16.1 96 96 Calm 30.12 1020 4 6 0.00 0.00
7:53 am 07:53 Sunny 64 17.8 62 16.7 93 93 Calm 30.12 1020 7 11 0.00 0.00
8:53 am 08:53 Sunny 72 22.2 65 18.3 79 79 Calm 30.14 1021 10 16 0.00 0.00
9:53 am 09:53 Sunny 77 25 64 17.8 64 64 NNW 3 6 30.15 1021 10 16 0.00 0.00
10:53 am 10:53 Sunny 81 27.2 61 16.1 51 51 WNW 5 7 30.15 1021 10 16 0.00 0.00
11:53 am 11:53 Sunny 81 27.2 55 12.8 41 41 WNW 7 11 30.14 1021 10 16 0.00 0.00
12:53 pm 12:53 Sunny 84 28.9 53 11.7 35 35 NNW 8 13 30.11 1020 10 16 0.00 0.00
1:53 pm 13:53 Sunny 86 30 53 11.7 32 32 N 8 13 30.09 1019 10 16 0.00 0.00
2:53 pm 14:53 Sunny 86 30 51 10.6 30 30 VRB 3 6 30.07 1018 10 16 0.00 0.00
3:53 pm 15:53 Sunny 87 30.6 51 10.6 29 29 N 8 13 30.06 1018 10 16 0.00 0.00
4:53 pm 16:53 Sunny 85 29.4 49 9.4 29 29 NE 9 15 30.06 1018 10 16 0.00 0.00
5:53 pm 17:53 Sunny 83 28.3 49 9.4 31 31 NE 9 15 30.07 1018 10 16 0.00 0.00
6:53 pm 18:53 Clear 76 24.4 52 11.1 43 43 NE 5 7 30.08 1019 10 16 0.00 0.00
7:53 pm 19:53 Clear 68 20 56 13.3 65 65 Calm 30.09 1019 10 16 0.00 0.00
8:53 pm 20:53 Clear 65 18.3 58 14.4 78 78 Calm 30.11 1020 10 16 0.00 0.00
9:53 pm 21:53 Clear 63 17.2 57 13.9 81 81 Calm 30.12 1020 10 16 0.00 0.00
10:53 pm 22:53 Clear 61 16.1 56 13.3 83 83 Calm 30.13 1020 10 16 0.01 0.13
11:53 pm 23:53 Clear 60 15.6 55 12.8 83 83 Calm 30.14 1021 10 16 0.00 0.00

Powered by AerisWeather